Other Public Products
Issued by NWS Grand Forks, ND

Home | Current Version | Previous Version | Graphics & Text | Print | Product List | Glossary On
Versions: 1 2 3 4 5 6 7 8 9 10 11 12 13 14 15 16 17 18 19 20 21 22 23 24 25 26 27 28 29 30 31 32 33 34 35 36 37 38 39 40 41 42 43 44 45 46 47 48 49 50
000
FPUS83 KFGF 221331
OPUFGF
PRAIRIE TO PINES WEATHER ROUNDUP
NATIONAL WEATHER SERVICE EASTERN NORTH DAKOTA/GRAND FORKS ND
800 AM CDT TUE APR 22 2014

 **SATELLITE DATA USED TO AUGMENT SKY COVER AT AUTOMATED STATIONS**
 *****  WEATHER ACROSS EASTERN NORTH DAKOTA  *****

CITY           SKY/WX    TMP DP  RH WIND       PRES   REMARKS
GRAND FORKS    PTSUNNY   36  34  92 SE3       30.14R FOG
GRAND FORKS AF MOSUNNY   34  33  99 S6        30.13S
GRAND CITY NWS   N/A     39 N/A N/A E5          N/A
BUXTON           N/A     41  40  98 SE3         N/A
DEVILS LAKE    MOSUNNY   37  28  70 SE6       30.09F
FARGO          SUNNY     40  33  76 SE3       30.13S
WAHPETON ARPT  SUNNY     37  32  81 CALM      30.15S
$$

 *****  WEATHER ACROSS CENTRAL AND WESTERN NORTH DAKOTA  *****

CITY           SKY/WX    TMP DP  RH WIND       PRES   REMARKS
JAMESTOWN      SUNNY     34  29  82 CALM      30.10R
BISMARCK       PTSUNNY   33  30  88 NE7       30.07F
MINOT          MOSUNNY   32  29  88 CALM      30.04F
MINOT AFB      MOSUNNY   33  33  99 S3        30.04F
GARRISON         N/A     34  31  88 E5        30.05S
WILLISTON      MOSUNNY   42  31  64 E5        29.96F
DICKINSON      PTSUNNY   43  29  57 SE14      29.95F
HETTINGER      MOSUNNY   41  30  65 E12       29.96F
$$

 *****  OTHER OBSERVATIONS NORTHEAST NORTH DAKOTA  *****

CITY           SKY/WX    TMP DP  RH WIND       PRES   REMARKS
WALHALLA         N/A     37  37 100 E3        30.12S
LANGDON        FAIR      37  34  87 CALM      30.10S
CAVALIER       FAIR      37  36  93 SE5       30.13S FOG
GRAFTON        FAIR      37  37 100 SE6       30.14S FOG
CANDO          FAIR      37  32  81 E3        30.10S
FORT TOTTEN      N/A     41  31  68 CALM      29.95S
ROLLA          FAIR      34  34 100 CALM      30.09F
RUGBY          FAIR      37  32  81 E5        30.07S
 ***** THE ABOVE OBSERVATIONS ARE NON NWS ARE NOT QUALITY
        CONTROLLED AND MAY MIS-REPORT RAIN FOR SNOW...
$$

 *****  OTHER OBSERVATIONS SOUTHEAST NORTH DAKOTA *****

CITY           SKY/WX    TMP DP  RH WIND       PRES   REMARKS
COOPERSTOWN    FAIR      37  37 100 CALM      30.11F
VALLEY CITY    FAIR      34  34 100 CALM      30.12S
OAKES          FAIR      36  36 100 S3        30.13R
GWINNER        SUNNY     41  36  81 SW7       30.15R
SHEYENNE NWR     N/A     34  34 100 CALM      29.95
BUFFALO        NOT AVBL
WYNDMERE       NOT AVBL
 ***** THE ABOVE OBSERVATIONS ARE NON NWS ARE NOT QUALITY
       CONTROLLED AND MAY MIS-REPORT RAIN FOR SNOW...
$$

  *****  WEATHER ACROSS NORTHERN MINNESOTA  *****

CITY           SKY/WX    TMP DP  RH WIND       PRES   REMARKS
FLAG ISLAND    SUNNY     28  25  86 CALM      30.14R
WARROAD        PTSUNNY   36  28  75 CALM      30.16R
ROSEAU         PTSUNNY   36  28  75 CALM      30.15S
HALLOCK        CLOUDY    37  34  87 SE6       30.14S
THF RVR FALLS  MOSUNNY   37  28  70 SE6       30.15F
HALSTAD          N/A     40  34  79 SE5         N/A
FOSSTON        MOSUNNY   36  28  75 E3        30.15S
BAUDETTE       SUNNY     32  28  85 CALM      30.14S
WASKISH        SUNNY     30  28  93 CALM      30.16R
CROOKSTON      MOSUNNY   37  36  93 SE5       30.16S
$$
  *****  WEATHER ACROSS CENTRAL AND WEST MINNESOTA  *****

CITY           SKY/WX    TMP DP  RH WIND       PRES   REMARKS
BEMIDJI        CLOUDY    32  28  84 W3        30.15S
PARK RAPIDS    SUNNY     33  31  92 CALM      30.15R
WADENA         SUNNY     34  30  86 CALM      30.15R
DETROIT LAKES  MOSUNNY   36  34  93 CALM      30.15S
MOORHEAD       SUNNY     39  37  93 S3        30.14S FOG
FERGUS FALLS   SUNNY     39  32  75 CALM      30.13S
ELBOW LAKE     FAIR      42  36  80 CALM      30.15S
MORRIS MN      SUNNY     39  34  81 CALM      30.15R
STAPLES        SUNNY     36  30  80 CALM      30.15R
WHEATON        SUNNY     45  37  76 CALM      30.17S
$$
  *****  WEATHER ELSEWHERE ACROSS MINNESOTA  *****

CITY           SKY/WX    TMP DP  RH WIND       PRES   REMARKS
DULUTH         MOSUNNY   35  24  64 NW7       30.08R
INTRNTL FALLS  SUNNY     33  27  78 NW6       30.12R
ELY            SUNNY     36  25  64 NW9G18    30.06S
CLOQUET        SUNNY     36  25  64 NW8G16    30.10S
BRAINERD       SUNNY     39  27  62 NW7       30.15R
HIBBING        SUNNY     35  26  69 N12       30.10R
ALEXANDRIA     SUNNY     38  34  85 W3        30.15R
SAINT CLOUD    SUNNY     39  30  70 NW5       30.14R
MINNEAPOLIS    MOSUNNY   42  27  55 N14       30.13R
$$

  *****  WEATHER ACROSS SOUTH DAKOTA  *****

CITY           SKY/WX    TMP DP  RH WIND       PRES   REMARKS
SIOUX FALLS    MOSUNNY   38  32  79 CALM      30.16R
BROOKINGS      NOT AVBL
WATERTOWN      SUNNY     36  32  85 CALM      30.13S
HURON          SUNNY     37  30  75 SE5       30.13S
SISSETON         N/A     41  36  82 CALM      30.13S
ABERDEEN       SUNNY     34  30  85 SE5       30.13S
MITCHELL       SUNNY     38  33  82 SE5       30.15R
PIERRE         SUNNY     42  33  70 E10       30.05S
MOBRIDGE       SUNNY     42  32  67 SE7       30.04F
RAPID CITY     MOSUNNY   38  29  70 SE3       29.90F
$$

  *****  SOME WEATHER IN NEARBY STATES *****

CITY           SKY/WX    TMP DP  RH WIND       PRES   REMARKS
GLASGOW MT     PTCLDY    45  30  55 E17       29.82F
GREAT FALLS MT MOCLDY    42  26  53 N5        29.71F
CHEYENNE WY    CLOUDY    43  33  68 CALM      30.02F
SCOTTSBLUFF NE PTCLDY    46  33  60 E12       29.97F
OMAHA NE       SUNNY     44  34  67 NW6       30.17R
DES MOINES IA  MOSUNNY   48  31  51 N9        30.14R
DAVENPORT IA   SUNNY     45  36  70 N14       30.05R
CHICAGO IL     MOSUNNY   46  28  49 N18       29.97R
EAU CLAIRE WI  SUNNY     39  27  62 NW10      30.08R
LA CROSSE WI   SUNNY     43  28  55 N9        30.07F
$$

  *****  SOME NATIONAL WEATHER *****

CITY           SKY/WX    TMP DP  RH WIND       PRES   REMARKS
LA GUARDIA NY  PTSUNNY   55  45  68 SW9       29.73F
RALEIGH NC     PTSUNNY   59  43  55 SW7       29.81F
ATLANTA GA     PTSUNNY   65  55  70 W13       29.92S
NEW ORLEANS LA MOSUNNY   67  64  90 SW8       30.00S
OKLAHOMA CITY  SUNNY     55  48  77 N6        30.13R
ALBUQUERQUE NM PTCLDY    60  39  45 NE10      30.15S
SALT LAKE CITY CLOUDY    66  31  27 SE17      29.77F
LOS ANGELES CA CLOUDY    60  53  77 CALM      29.95S
BOISE ID       LGT RAIN  53  38  56 N16G24    29.78R
SEATTLE WA     LGT RAIN  43  39  87 NE7       29.88S
$$

*** WEATHER ACROSS MANITOBA...SASKATCHEWAN AND ONTARIO ***
                ***ONTARIO***

CITY           SKY/WX    TMP DP  RH WIND       PRES   REMARKS
GERALDTON      FLURRIES  28  25  86 NW12      29.95R WCI  18
THUNDER BAY    LGT RAIN  36  28  75 N12       30.01R
SIOUX LOOKOUT  MOSUNNY   32  25  74 N6        30.08R
TORONTO        LGT RAIN  55  52  88 NW15      29.59R
BIG TROUT LK   SUNNY     27  25  93 W3        30.06R
PICKLE LAKE    PTSUNNY   28  25  86 N5        30.05R WCI  23
DRYDEN         SUNNY     32  27  80 W5        30.09R
KENORA         SUNNY     34  25  69 NW8       30.13R
$$
                *** MANITOBA***

CITY           SKY/WX    TMP DP  RH WIND       PRES   REMARKS
BRANDON        PTSUNNY   34  32  93 NW3       30.10F
DAUPHIN        SUNNY     34  32  93 W5        30.08S
ISLAND LAKE    MOSUNNY   30  28  93 W3        30.06R
PILOT MOUND      N/A     36  32  87 S2          N/A
THE PAS        MOSUNNY   34  28  80 S7          N/A
THOMPSON       PTSUNNY   32  27  80 E2        30.01F
WINNIPEG       PTSUNNY   36  32  87 SE6       30.14S
LYNN LAKE      PTSUNNY   36  30  80 E2        29.96S
CHURCHILL      MOSUNNY   19  12  73 NE5       30.03S WCI  13
GILLAM         CLOUDY    30  21  69 SW3       30.04R
$$
                ***SASKATCHEWAN***

CITY           SKY/WX    TMP DP  RH WIND       PRES   REMARKS
ESTEVAN        PTSUNNY   37  34  87 E12       30.00F
KINDERSLEY     CLOUDY    43  30  61 SE12      29.78F
LLOYDMINSTER   MOCLDY    37  32  81 E6        29.80F
PRINCE ALBERT  MOCLDY    36  34  93 E9        29.94F
REGINA         CLOUDY    39  32  75 SE21G29   29.95F



USA.gov is the U.S. government's official web portal to all federal, state and local government web resources and services.